Weather History for Lucknow, India

Change the Weather History Date:

Sunday, October 16, 2011

  Actual Average Record
Temperature  
Mean Temperature 78 °F -  
Max Temperature 91 °F 81 °F 93 °F (2006)
Min Temperature 64 °F 63 °F 60 °F (2014)
Cooling Degree Days 12    
Growing Degree Days 28 (Base 50)    
Moisture  
Dew Point 61 °F    
Average Humidity 57    
Maximum Humidity 83    
Minimum Humidity 28    
Precipitation  
Precipitation 0.00 in - - ()
Sea Level Pressure  
Sea Level Pressure 29.78 in    
Wind  
Wind Speed 1 mph ()    
Max Wind Speed 7 mph    
Max Gust Speed -    
Visibility 3.0 miles    
Events      
Averages and records for this station are not official NWS values.
T = Trace of Precipitation, MM = Missing Value Source: Averaged Metar Reports

Daily Weather History Graph

Daily Weather History Graph

Search for Another Location

Airport:

Trip Planner

Search our weather history database for the weather conditions in past years. The results will help you decide how hot, cold, wet, or windy it might be!

Date:

Astronomy

Oct. 16, 2011 Rise Set
Actual Time 6:06 AM IST 5:37 PM IST
Civil Twilight 5:42 AM IST 6:01 PM IST
Nautical Twilight 5:15 AM IST 6:28 PM IST
Astronomical Twilight 4:48 AM IST 6:55 PM IST
Moon 8:22 PM IST (10/16) 9:35 AM IST (10/16)
Length of Visible Light 12h 18m
Length of Day
11h 31m
Waning Gibbous, 85% of the Moon is Illuminated
Oct 16
Waning Gibbous
Oct 20
Last Quarter
Oct 27
New
Nov 2
First Quarter
Nov 11
Full

Hourly Weather History & Observations

Time (IST) Temp. Heat Index Dew Point Humidity Pressure Visibility Wind Dir Wind Speed Gust Speed Precip Events Conditions
12:00 AM 69.8 °F - 64.4 °F 83% 29.77 in 3.1 mi West 3.5 mph - N/A   Haze
1:00 AM 71.6 °F - 60.8 °F 69% 29.77 in 3.1 mi Calm Calm - N/A   Haze
2:00 AM 69.8 °F - 62.6 °F 78% 29.77 in 3.1 mi Calm Calm - N/A   Haze
3:00 AM 69.8 °F - 62.6 °F 78% 29.77 in 3.1 mi Calm Calm - N/A   Haze
4:00 AM 69.8 °F - 62.6 °F 78% 29.77 in 3.1 mi Calm Calm - N/A   Haze
5:00 AM 69.8 °F - 62.6 °F 78% 29.77 in 2.5 mi Calm Calm - N/A   Haze
8:00 AM 71.6 °F - 60.8 °F 69% 29.80 in 1.9 mi Calm Calm - N/A   Haze
8:30 AM 77 °F - 61 °F 48% 29.83 in 2 mi Calm Calm - -   Haze
9:00 AM 78.8 °F - 62.6 °F 57% 29.83 in 2.5 mi Calm Calm - N/A   Haze
10:00 AM 80.6 °F 81.8 °F 62.6 °F 54% 29.83 in 2.5 mi WNW 3.5 mph - N/A   Haze
12:00 PM 89.6 °F 88.9 °F 59.0 °F 36% 29.80 in 3.1 mi Calm Calm - N/A   Haze
1:00 PM 91.4 °F 89.4 °F 55.4 °F 29% 29.77 in 3.1 mi West 3.5 mph - N/A   Haze
2:00 PM 91.4 °F 89.4 °F 55.4 °F 29% 29.74 in 3.7 mi NW 6.9 mph - N/A   Unknown
3:00 PM 91.4 °F 89.1 °F 53.6 °F 28% 29.74 in 3.7 mi NNW 4.6 mph - N/A   Unknown
4:00 PM 91.4 °F 89.4 °F 55.4 °F 29% 29.74 in 3.7 mi NW 4.6 mph - N/A   Unknown
5:00 PM 89.6 °F 89.5 °F 60.8 °F 38% 29.74 in 3.7 mi Variable 2.3 mph - N/A   Unknown
6:00 PM 84.2 °F 85.0 °F 62.6 °F 48% 29.77 in 3.1 mi Variable 2.3 mph - N/A   Smoke
7:00 PM 80.6 °F 81.8 °F 62.6 °F 54% 29.77 in 3.1 mi Calm Calm - N/A   Smoke
8:00 PM 78.8 °F - 62.6 °F 57% 29.80 in 3.1 mi Calm Calm - N/A   Haze
9:00 PM 75.2 °F - 64.4 °F 69% 29.80 in 3.1 mi Calm Calm - N/A   Haze
10:00 PM 75.2 °F - 64.4 °F 69% 29.80 in 3.1 mi Calm Calm - N/A   Haze
11:00 PM 75.2 °F - 64.4 °F 69% 29.80 in 3.1 mi Calm Calm - N/A   Haze